Other Public Products
Issued by NWS Grand Forks, ND

Home | Current Version | Previous Version | Graphics & Text | Print | Product List | Glossary On
Versions: 1 2 3 4 5 6 7 8 9 10 11 12 13 14 15 16 17 18 19 20 21 22 23 24 25 26 27 28 29 30 31 32 33 34 35 36 37 38 39 40 41 42 43 44 45 46 47 48 49 50
065
FPUS83 KFGF 061210
OPUFGF
PRAIRIE TO PINES WEATHER ROUNDUP
NATIONAL WEATHER SERVICE EASTERN NORTH DAKOTA/GRAND FORKS ND
600 AM CST SAT FEB 06 2016

 **SATELLITE DATA USED TO AUGMENT SKY COVER AT AUTOMATED STATIONS**
 *****  WEATHER ACROSS EASTERN NORTH DAKOTA  *****

CITY           SKY/WX    TMP DP  RH WIND       PRES   REMARKS
GRAND FORKS    CLEAR     20  16  84 S9        29.89F WCI   9
6HR MIN TEMP:  20; 6HR MAX TEMP:  24;

GRAND FORKS AF CLOUDY    18  15  88 S8        29.87F WCI   8
GRAND CITY NWS   N/A     19 N/A N/A S7          N/A  WCI  10
BUXTON           N/A     19  19  98 S10         N/A  WCI   8
DEVILS LAKE    CLOUDY    29  24  82 S8        29.81F WCI  21
6HR MIN TEMP:  20; 6HR MAX TEMP:  29;

FARGO          CLEAR     23  17  78 S13       29.93F WCI  11
6HR MIN TEMP:  20; 6HR MAX TEMP:  23;

WAHPETON ARPT  CLOUDY   N/A N/A N/A S9        29.98F
$$

 *****  WEATHER ACROSS CENTRAL AND WESTERN NORTH DAKOTA  *****

CITY           SKY/WX    TMP DP  RH WIND       PRES   REMARKS
JAMESTOWN      CLOUDY    30  22  72 SW14      29.86F WCI  19
6HR MIN TEMP:  21; 6HR MAX TEMP:  31;

BISMARCK       CLOUDY    34  24  67 SW6       29.87F
6HR MIN TEMP:  23; 6HR MAX TEMP:  34;

MINOT          CLOUDY    37  23  56 SW10      29.75F
6HR MIN TEMP:  31; 6HR MAX TEMP:  37;

MINOT AFB      CLOUDY    35  27  73 W14       29.74F
6HR MIN TEMP:  23; 6HR MAX TEMP:  35;

GARRISON         N/A     31  24  75 SW12      29.80F WCI  22
6HR MIN TEMP:  21; 6HR MAX TEMP:  31;

WILLISTON      CLOUDY    34  26  72 SW8       29.79F
6HR MIN TEMP:  24; 6HR MAX TEMP:  34;

DICKINSON      CLOUDY    33  21  61 W14       29.85S WCI  23
6HR MIN TEMP:  31; 6HR MAX TEMP:  34;

HETTINGER      CLOUDY    33  21  61 W13       29.92F WCI  24
6HR MIN TEMP:  25; 6HR MAX TEMP:  33;

$$

 *****  OTHER OBSERVATIONS NORTHEAST NORTH DAKOTA  *****

CITY           SKY/WX    TMP DP  RH WIND       PRES   REMARKS
WALHALLA       FAIR      23  23 100 S8        29.84F WCI  14
LANGDON        FAIR      21  19  93 S13       29.79F WCI   9
CAVALIER       FAIR      19  18  93 S10       29.85F WCI   8
GRAFTON        FAIR      16  16 100 S8        29.88F WCI   5
CANDO          NOT AVBL
FORT TOTTEN      N/A     27  23  86 S7        29.95S WCI  19
ROLLA          CLOUDY    25  25 100 SW12      29.75F WCI  14
RUGBY          FAIR      28  25  86 SW10      29.77F WCI  19
 ***** THE ABOVE OBSERVATIONS ARE NON NWS ARE NOT QUALITY
        CONTROLLED AND MAY MIS-REPORT RAIN FOR SNOW...
$$

 *****  OTHER OBSERVATIONS SOUTHEAST NORTH DAKOTA *****

CITY           SKY/WX    TMP DP  RH WIND       PRES   REMARKS
COOPERSTOWN    NOT AVBL
VALLEY CITY    CLOUDY    23  23 100 S8        29.90F WCI  14
OAKES          PTSUNNY   23  23 100 S14       29.93F WCI  11
GWINNER          N/A     27  23  86 S17       29.93F WCI  14
SHEYENNE NWR     N/A     24  20  86 SW9       29.95S WCI  14
BUFFALO          N/A     24  18  77 SW12        N/A  WCI  13
WYNDMERE       NOT AVBL
 ***** THE ABOVE OBSERVATIONS ARE NON NWS ARE NOT QUALITY
       CONTROLLED AND MAY MIS-REPORT RAIN FOR SNOW...
$$

  *****  WEATHER ACROSS NORTHERN MINNESOTA  *****

CITY           SKY/WX    TMP DP  RH WIND       PRES   REMARKS
FLAG ISLAND    FLURRIES  18  16  93 SE7       29.92F WCI   8
WARROAD        CLOUDY    19  16  86 SE3       29.91F
ROSEAU         CLOUDY    21  16  79 S6        29.91F WCI  14
HALLOCK        CLOUDY    19  18  93 SE12      29.86F WCI   7
THF RVR FALLS  CLOUDY    23  18  80 S9        29.91F WCI  13
6HR MIN TEMP:  16; 6HR MAX TEMP:  23;

HALSTAD        NOT AVBL
FOSSTON        CLOUDY    23  19  86 S13       29.93F WCI  11
BAUDETTE       CLOUDY    18  14  84 SE5       29.93F WCI  11
6HR MIN TEMP:  17; 6HR MAX TEMP:  20; 6HR PCP: TRACE;

WASKISH        CLOUDY    21  18  86 S3        29.94F
CROOKSTON      CLEAR     21  18  86 S13       29.92F WCI   9
$$
  *****  WEATHER ACROSS CENTRAL AND WEST MINNESOTA  *****

CITY           SKY/WX    TMP DP  RH WIND       PRES   REMARKS
BEMIDJI        CLOUDY    20  19  95 S5        29.95F WCI  13
PARK RAPIDS    CLOUDY    21  18  88 S6        29.97F WCI  13
6HR MIN TEMP:  20; 6HR MAX TEMP:  21;

WADENA         CLOUDY    21  19  93 S7        29.99F WCI  13
DETROIT LAKES  CLOUDY    23  21  93 S6        29.96F WCI  16
MOORHEAD       CLOUDY    21  18  86 S14       29.95F WCI   8
FERGUS FALLS   CLOUDY    21  19  93 S7        30.02F WCI  13
ELBOW LAKE     FAIR      20  19  96 SE9       30.01F WCI   9
MORRIS MN      CLOUDY    19  18  93 S9        30.02F WCI   9
STAPLES        MOCLDY    21  19  93 S7        30.01F WCI  13
WHEATON        CLOUDY    27  23  86 S10       30.01F WCI  17
$$
  *****  WEATHER ELSEWHERE ACROSS MINNESOTA  *****

CITY           SKY/WX    TMP DP  RH WIND       PRES   REMARKS
DULUTH         PTCLDY    18  14  84 W9        30.02S WCI   7
6HR MIN TEMP:  16; 6HR MAX TEMP:  22;

INTRNTL FALLS  MOCLDY    17  14  88 CALM      29.96F FOG
6HR MIN TEMP:  17; 6HR MAX TEMP:  21;

ELY            CLOUDY    16  16 100 SW6       29.98F WCI   7
CLOQUET        CLOUDY    19  16  86 SW5       30.03S WCI  13
BRAINERD       CLOUDY    20  19  96 S7        30.03F FOG     WCI  11
6HR MIN TEMP:  17; 6HR MAX TEMP:  23;

HIBBING        CLOUDY     8   6  92 CALM      29.99F
6HR MIN TEMP:   7; 6HR MAX TEMP:  23;

ALEXANDRIA     FLURRIES  22  19  89 S12       30.02F WCI  10
6HR MIN TEMP:  17; 6HR MAX TEMP:  24; 6HR PCP: TRACE;

SAINT CLOUD    MOCLDY    23  21  92 S6        30.08F WCI  16
6HR MIN TEMP:  21; 6HR MAX TEMP:  25;

MINNEAPOLIS    CLOUDY    26  21  81 S7        30.14S WCI  18
6HR MIN TEMP:  25; 6HR MAX TEMP:  26;

$$

  *****  WEATHER ACROSS SOUTH DAKOTA  *****

CITY           SKY/WX    TMP DP  RH WIND       PRES   REMARKS
SIOUX FALLS    CLOUDY    20  17  88 SW5       30.13F WCI  13
6HR MIN TEMP:  20; 6HR MAX TEMP:  23;

BROOKINGS      CLOUDY    19  17  92 S9        30.08F WCI   8
WATERTOWN      CLOUDY    20  16  84 S10       30.03F WCI   9
6HR MIN TEMP:  12; 6HR MAX TEMP:  20;

HURON          CLEAR     23  19  85 S10       30.06F WCI  12
6HR MIN TEMP:  22; 6HR MAX TEMP:  25;

SISSETON         N/A     29  22  75 SW15      29.98F WCI  18
ABERDEEN       CLOUDY    23  19  85 S10       29.99F WCI  12
6HR MIN TEMP:  18; 6HR MAX TEMP:  24;

MITCHELL       CLEAR     26  22  84 SW12      30.11F WCI  16
PIERRE         CLEAR     29  21  72 SW15      30.02F WCI  18
6HR MIN TEMP:  28; 6HR MAX TEMP:  31;

MOBRIDGE       CLOUDY    28  22  78 SE8       29.93F WCI  20
RAPID CITY     CLOUDY    25  16  68 CALM      30.02F
6HR MIN TEMP:  20; 6HR MAX TEMP:  29;

$$

  *****  SOME WEATHER IN NEARBY STATES *****

CITY           SKY/WX    TMP DP  RH WIND       PRES   REMARKS
GLASGOW MT     CLOUDY    38  26  62 W3        29.81F
6HR MIN TEMP:  34; 6HR MAX TEMP:  40;

GREAT FALLS MT CLOUDY    42  20  41 SW26G32   29.89F
6HR MIN TEMP:  42; 6HR MAX TEMP:  44;

CHEYENNE WY    CLOUDY    29  13  51 W17G29    30.14F WCI  17
6HR MIN TEMP:  24; 6HR MAX TEMP:  29;

SCOTTSBLUFF NE CLOUDY    21  13  71 N9        30.17F WCI  11
6HR MIN TEMP:  12; 6HR MAX TEMP:  21;

OMAHA NE       CLOUDY    29  27  92 CALM      30.25F
6HR MIN TEMP:  27; 6HR MAX TEMP:  32;

DES MOINES IA  CLOUDY    29  25  85 W3        30.24R
6HR MIN TEMP:  29; 6HR MAX TEMP:  31;

DAVENPORT IA   CLOUDY    29  23  78 SW8       30.26S WCI  21
6HR MIN TEMP:  25; 6HR MAX TEMP:  29;

CHICAGO IL     PTCLDY    25  21  85 SW6       30.26F WCI  18
6HR MIN TEMP:  25; 6HR MAX TEMP:  27;

EAU CLAIRE WI  CLOUDY    25  21  85 SW7       30.13S WCI  17
6HR MIN TEMP:  23; 6HR MAX TEMP:  25;

LA CROSSE WI   CLOUDY    28  23  81 W7        30.19F WCI  21
6HR MIN TEMP:  25; 6HR MAX TEMP:  28;

$$

  *****  SOME NATIONAL WEATHER *****

CITY           SKY/WX    TMP DP  RH WIND       PRES   REMARKS
LA GUARDIA NY  PTCLDY    32  18  56 W3        30.41R
6HR MIN TEMP:  32; 6HR MAX TEMP:  34;                              C1F1C2F2C3F3C4F4C5F5C6F6C7F7C8F8C9F9CaFaCbFbCcFcCdFdCe!



USA.gov is the U.S. government's official web portal to all federal, state and local government web resources and services.